RH
47 63 74 73 68 62 54 57 76 87 87 92 99 100 99 100 99 97 92 90 96 100 100 99 94 92 97 100 100 99 92 84 72 61 56 49 42 41 42 43 44 42 38 33 29 28 26 26 27 30 31 32 37 41 39 36 35 34 33 31 30 28 25 22 19 18 17 16 18 21 23 23 21 22
62 74 72 61 57 57 52 51 65 84 92 96 99 99 99 101 99 97 95 92 94 97 100 102 98 95 97 99 101 100 96 91 80 67 58 49 42 42 43 45 46 43 38 32 29 28 27 28 30 32 34 36 37 38 36 37 40 41 40 37 35 34 32 30 27 25 24 24 24 25 26 27 29 30
71 68 58 50 51 56 61 65 66 69 80 91 98 100 100 101 99 99 99 93 90 95 99 100 100 100 99 99 101 101 97 95 88 75 63 52 46 46 47 47 47 44 38 32 29 29 30 31 34 36 38 40 40 39 38 38 41 43 43 41 39 37 36 36 35 33 32 32 32 33 34 34 34 34
66 59 54 54 59 63 76 89 88 83 87 94 99 101 100 99 100 100 100 95 92 96 99 99 100 100 99 99 100 102 97 89 82 75 69 60 53 52 52 50 49 45 39 35 32 32 34 36 38 40 42 42 41 41 41 41 41 44 45 42 39 38 38 40 40 40 40 40 40 40 40 41 40 40
66 64 62 64 66 69 80 91 93 90 88 91 98 102 100 99 100 100 98 97 98 100 100 100 100 99 100 99 99 101 99 89 81 76 72 66 60 59 57 53 51 47 41 37 36 36 38 40 42 43 43 44 43 43 44 44 44 45 46 44 42 40 39 41 42 43 44 44 44 44 43 43 42 42
75 70 66 66 68 74 81 84 86 84 82 89 99 101 99 99 99 99 99 100 100 101 99 99 100 99 100 100 99 100 98 92 88 82 74 71 73 73 68 61 55 50 45 42 40 40 41 43 45 45 45 45 45 45 46 46 46 47 49 48 46 43 40 40 41 42 42 42 42 41 40 39 38 38
85 79 75 71 70 75 77 80 91 95 92 96 100 98 98 99 98 99 100 101 100 100 99 98 99 100 100 100 100 99 95 88 82 74 68 71 76 77 76 78 74 60 50 47 44 44 44 45 47 47 47 47 46 47 47 46 46 48 50 50 47 44 41 41 40 40 39 38 37 37 37 36 35 34
89 88 87 82 79 79 76 76 87 96 98 100 99 98 99 98 98 100 100 100 100 99 99 100 100 100 100 100 99 97 93 84 72 68 72 75 74 71 76 91 96 79 60 52 49 48 48 48 49 48 49 50 49 49 48 46 46 47 49 49 46 44 43 43 41 39 37 35 34 34 35 35 35 35
87 86 88 90 91 90 85 83 86 88 92 97 98 98 99 99 99 99 99 100 100 100 100 100 100 100 99 99 100 98 91 78 68 74 85 86 84 84 84 90 92 76 61 56 54 55 56 54 52 51 51 53 53 52 50 48 46 46 48 48 46 45 45 44 42 39 37 35 34 34 36 37 38 38
84 84 83 89 97 99 95 94 95 93 92 95 99 99 100 100 99 99 99 100 100 100 100 100 99 100 100 99 100 100 95 85 81 87 93 90 92 96 94 91 83 68 62 63 61 65 68 62 56 54 55 56 57 56 54 51 48 47 48 48 47 46 45 44 42 41 41 41 41 43 44 45 45 45
80 81 80 81 89 97 99 98 98 100 99 99 99 99 99 100 99 99 100 100 100 99 100 100 100 100 100 100 100 100 99 96 94 94 93 90 92 97 99 96 84 68 66 68 65 68 69 63 59 59 59 59 60 60 58 54 50 48 48 47 46 46 46 46 48 49 51 53 54 55 55 54 54 53
79 79 80 79 80 86 95 100 99 99 100 100 99 99 99 100 100 100 100 100 100 100 99 100 100 99 100 100 100 100 99 99 96 94 94 93 93 98 99 91 79 69 68 69 70 71 69 65 65 64 63 64 64 63 61 56 52 50 48 47 47 49 51 54 56 59 60 62 62 62 61 61 61 61
76 79 79 80 80 81 86 95 100 100 99 100 100 100 99 99 99 100 100 100 100 100 100 99 99 100 100 100 100 100 100 99 98 97 97 96 98 99 92 80 73 74 75 77 78 77 74 72 71 68 67 67 66 64 61 57 55 53 51 52 54 56 58 59 61 63 64 64 64 64 64 63 65 67
54 70 77 79 80 81 84 89 95 99 100 100 100 100 100 100 100 100 100 100 100 100 100 100 100 100 100 100 100 100 100 100 100 98 98 99 99 96 91 87 84 83 83 86 86 83 80 78 74 71 69 68 68 67 64 61 60 59 61 62 61 61 63 66 69 70 69 69 69 69 69 70 72 75
26 43 62 73 77 80 82 83 88 94 99 100 100 100 100 99 100 100 100 100 100 99 99 100 100 99 100 100 99 99 100 100 100 100 100 98 94 92 95 98 96 90 86 87 89 89 87 82 75 72 73 73 73 71 69 69 70 71 73 71 68 70 74 78 80 78 76 77 77 75 76 79 82 85
15 21 35 53 67 75 78 78 80 87 93 97 99 100 100 100 100 100 100 100 100 100 99 100 99 98 100 101 100 99 100 100 100 100 99 96 93 95 100 101 97 92 86 86 91 93 90 84 80 80 81 81 80 78 77 78 80 82 81 77 75 78 81 82 82 79 77 77 76 74 77 82 86 88
14 15 18 28 45 62 74 77 76 78 82 88 94 98 99 99 100 101 101 100 100 100 100 100 100 99 99 100 99 98 98 99 99 98 98 97 94 95 97 95 92 91 89 89 92 95 93 88 86 88 89 88 87 85 83 83 83 84 84 81 79 79 82 84 83 80 75 72 72 74 77 80 84 86
15 14 15 16 23 36 53 66 73 74 73 74 82 93 100 100 99 100 100 100 100 100 100 100 100 100 99 98 97 96 96 97 98 97 96 97 97 95 91 85 83 88 93 94 94 95 95 93 93 94 95 92 89 86 83 82 83 85 86 83 80 79 82 85 85 79 72 69 71 75 79 85 90 91
19 16 15 15 15 18 25 38 53 66 74 76 78 85 95 100 100 99 100 99 100 100 100 100 100 100 101 99 95 95 97 99 100 100 98 99 100 98 92 87 86 93 99 99 98 99 100 98 98 97 92 87 84 81 80 81 84 88 89 87 83 83 87 92 91 85 81 81 83 84 88 95 99 96
23 21 19 17 17 17 17 20 29 43 63 83 92 94 96 99 100 100 100 100 100 100 100 100 99 99 101 101 99 98 99 100 101 101 100 100 100 98 96 95 96 98 100 100 99 101 102 100 97 94 89 86 83 80 79 81 84 87 90 88 86 88 93 94 91 87 87 92 94 92 92 95 95 91
26 25 23 21 19 18 18 20 23 28 38 55 73 85 93 98 100 101 100 99 100 100 100 100 100 100 100 99 100 100 100 100 101 100 99 99 99 100 99 99 99 99 100 100 100 101 102 101 98 95 92 88 84 82 83 86 90 92 93 93 92 94 94 92 88 85 86 90 92 93 94 94 94 94
27 27 26 25 24 23 21 21 23 26 29 33 40 50 62 74 87 97 101 100 99 100 101 100 99 101 101 100 100 101 101 100 100 100 100 99 99 99 99 99 100 100 100 100 100 100 101 101 100 97 93 89 88 90 92 95 98 98 99 100 99 98 96 93 92 93 94 95 97 98 98 99 99 99
25 27 27 27 26 26 26 25 24 25 28 30 32 34 38 46 60 77 92 100 101 99 100 101 100 100 101 101 100 100 100 100 100 100 100 100 99 99 99 99 100 100 100 100 100 100 100 100 100 99 97 96 97 98 99 100 101 101 100 100 99 98 96 95 96 99 100 100 100 100 99 99 99 98
22 23 25 26 27 27 27 28 28 28 28 30 32 34 35 37 42 52 68 87 100 101 99 99 100 100 100 100 100 100 100 99 100 100 100 100 99 99 100 100 101 101 100 99 99 100 100 100 100 100 100 100 101 100 100 99 97 96 95 95 95 95 96 96 97 99 99 99 99 99 96 93 94 95
22 22 22 22 23 25 26 27 28 30 31 31 32 34 37 39 40 42 48 63 83 97 101 101 99 99 100 100 99 100 100 100 100 100 100 99 100 100 100 100 100 100 100 99 99 100 100 100 100 100 100 100 101 100 97 94 90 90 93 95 96 97 98 98 97 98 98 99 99 99 97 95 96 98
20 22 23 23 22 22 22 23 25 27 29 31 33 35 37 38 39 41 42 46 56 72 88 98 101 100 99 100 100 99 99 100 100 100 100 99 99 100 99 99 99 99 100 100 100 99 99 99 99 100 100 101 102 100 97 95 95 96 98 99 100 100 100 100 99 100 100 100 100 99 99 100 100 98
12 15 18 20 22 23 23 23 23 24 25 27 30 32 35 38 40 41 42 43 45 51 63 80 95 101 99 99 100 100 100 100 99 99 100 100 100 100 99 99 100 100 100 100 99 99 100 100 100 100 100 101 102 101 100 99 99 100 99 99 99 100 100 100 100 100 100 100 100 99 98 98 100 98
5 6 8 11 14 17 20 22 24 25 25 25 26 28 30 33 38 42 45 46 47 48 50 61 80 96 101 100 99 99 100 100 100 99 100 100 100 100 100 100 100 100 100 100 99 99 100 100 101 100 100 100 101 101 101 100 99 99 100 100 101 101 100 100 100 100 100 101 101 100 99 100 102 101
3 3 3 4 5 6 8 11 15 18 22 24 27 28 29 30 32 37 41 45 47 50 51 53 62 77 91 99 101 100 99 99 100 100 100 100 100 100 99 100 100 100 100 99 100 100 100 100 101 100 100 100 100 99 100 100 100 100 101 101 102 102 100 100 100 101 101 101 100 101 100 100 102 101
4 4 3 3 3 3 3 4 4 6 8 11 15 19 23 27 29 32 36 40 44 47 50 51 53 59 70 83 94 100 101 99 99 100 99 99 100 100 100 99 99 99 100 100 100 100 100 100 100 100 100 99 99 99 100 101 101 100 99 99 100 100 100 100 100 100 100 99 100 101 100 98 99 100
4 4 4 4 3 3 3 3 3 3 3 3 4 6 8 12 17 22 27 33 39 44 49 51 53 54 56 62 75 89 99 101 100 99 100 100 100 99 99 100 100 100 100 100 99 100 100 100 100 100 100 100 100 100 100 100 100 100 99 99 99 99 99 99 100 100 99 98 99 101 100 99 100 101
5 5 5 4 4 4 4 3 3 3 3 3 3 3 3 3 4 7 11 16 23 31 39 47 52 55 56 54 57 67 83 95 100 100 99 99 100 100 99 99 99 100 100 100 100 99 99 99 99 100 100 100 100 100 100 100 100 100 99 99 100 100 99 99 100 100 100 100 100 100 100 100 100 100
6 6 5 5 5 4 4 4 4 3 3 4 3 3 3 3 3 3 3 5 7 11 17 25 35 46 55 60 61 61 66 75 87 97 101 100 99 99 100 100 100 100 99 99 100 100 100 100 99 99 100 100 100 100 100 100 100 99 99 99 100 101 100 100 100 100 100 100 100 100 100 100 100 100
7 7 6 6 6 5 5 4 4 4 4 4 4 3 3 3 3 3 3 3 3 4 4 6 11 19 31 45 60 71 76 74 75 85 98 102 101 100 100 100 100 100 100 100 99 100 100 100 100 99 99 100 100 100 100 100 100 100 99 99 100 100 100 100 100 100 100 100 100 100 100 100 100 100
7 7 7 7 6 6 6 5 5 5 5 4 4 4 4 3 3 4 4 4 3 3 4 4 4 5 8 14 26 46 68 83 88 91 96 100 100 100 101 101 100 100 100 100 100 100 100 100 100 100 100 100 100 100 100 100 99 100 100 100 100 100 99 99 99 99 100 100 99 100 100 100 100 100
8 8 8 8 7 7 7 6 6 5 5 5 5 4 4 4 4 4 5 5 5 5 4 4 4 4 4 4 5 10 24 46 69 87 98 103 103 102 100 99 100 101 100 99 99 100 100 100 99 99 100 100 100 100 100 100 100 100 100 100 100 100 100 100 100 100 100 100 100 100 100 100 100 100
9 9 9 9 8 8 8 7 7 6 6 6 6 5 5 5 5 5 5 5 6 6 6 5 5 5 4 5 5 4 4 8 20 38 57 75 91 100 102 101 99 99 100 101 101 100 100 100 100 100 100 100 100 100 100 100 100 100 100 100 100 100 100 100 100 100 100 100 100 100 100 101 100 99
10 10 10 10 9 9 9 8 8 7 7 7 7 6 6 5 5 5 6 6 6 6 6 6 6 6 6 5 5 6 6 5 5 7 12 23 41 63 83 95 100 100 99 99 100 101 101 100 100 100 100 100 100 100 100 100 100 100 100 100 100 100 100 100 100 100 100 100 100 101 100 100 98 94
11 11 11 11 11 10 10 10 9 9 8 8 8 7 7 6 6 5 6 7 7 7 7 6 6 6 6 7 7 6 7 7 7 7 7 7 12 25 43 64 84 97 100 98 97 99 101 101 100 100 100 100 100 100 100 100 100 100 100 100 100 100 100 100 100 100 100 100 101 100 98 95 90 84
13 13 12 12 12 11 11 11 11 10 10 9 9 9 8 7 7 6 6 7 8 8 7 7 7 7 7 7 7 8 9 9 9 8 9 13 23 34 40 45 56 73 87 94 98 98 98 96 96 98 100 101 100 100 100 100 100 100 100 100 100 100 100 100 100 100 100 100 99 97 92 86 80 73
16 15 15 14 13 13 13 13 12 12 11 11 10 10 10 9 8 7 7 7 8 10 9 8 7 8 9 11 13 13 14 15 15 14 12 16 32 56 71 72 69 73 83 94 101 100 97 93 91 92 95 98 98 99 100 100 100 100 100 100 100 100 100 100 100 99 98 97 93 88 81 75 69 64
18 18 18 17 16 15 14 14 14 14 13 12 12 11 11 11 10 9 8 8 8 10 11 10 9 9 12 19 26 29 29 28 29 30 29 30 42 67 90 98 96 94 96 99 101 101 100 98 95 93 94 95 97 99 101 101 100 100 100 100 100 100 100 98 97 95 92 87 83 77 71 66 62 58
21 21 20 20 19 18 17 16 16 16 15 14 14 14 13 13 12 12 10 9 9 10 11 11 10 11 16 26 37 45 48 48 49 52 56 59 66 80 94 101 100 100 100 100 99 100 101 100 99 99 99 98 98 101 103 103 102 101 100 100 100 100 97 94 91 88 84 78 73 69 64 60 57 54
24 23 23 22 21 20 20 19 18 17 17 17 16 16 15 15 14 14 13 12 10 10 12 13 12 11 14 24 39 51 58 62 65 69 74 80 87 94 100 102 100 99 100 100 100 100 100 100 100 100 100 99 99 101 102 102 102 101 100 100 98 96 93 89 85 80 74 70 67 63 59 57 55 51
25 25 24 24 23 23 22 21 20 19 19 19 19 18 17 17 16 16 16 15 14 12 12 13 14 13 13 19 32 47 58 66 71 74 77 82 90 96 100 102 101 100 99 100 100 100 100 100 100 100 99 100 100 100 100 101 102 102 100 97 94 90 88 84 79 73 68 66 64 61 58 55 51 46
Wind_Speed
19 21 23 24 24 25 25 25 26 26 25 25 26 28 33 36 36 35 34 32 33 35 33 29 28 28 29 31 32 31 30 31 29 28 29 28 27 27 26 25 25 24 23 23 22 22 22 22 23 23 23 22 22 23 22 21 19 19 18 18 18 18 18 18 19 19 19 20 20 20 21 21 21 21
18 20 22 23 24 25 25 25 26 27 28 28 27 28 32 35 35 35 36 35 33 33 34 32 30 30 31 33 34 33 33 33 30 30 30 28 27 28 27 26 25 24 24 23 23 23 23 23 23 24 24 23 24 26 25 22 21 20 20 20 20 20 20 20 21 21 21 21 21 22 22 22 23 23
17 19 20 22 24 25 25 25 24 26 29 31 31 30 32 34 34 35 37 36 34 34 35 35 33 33 34 36 37 37 36 34 31 31 30 28 28 28 28 27 26 25 24 23 24 24 23 24 24 24 24 25 26 27 26 25 23 22 22 22 21 21 21 22 22 23 23 23 23 23 24 24 25 25
16 18 19 21 23 25 25 23 23 26 29 32 32 32 34 33 33 36 38 37 35 35 36 36 36 37 38 40 42 40 37 34 32 31 31 29 28 29 28 27 26 25 25 24 24 25 24 24 25 25 25 26 27 28 28 27 26 24 24 23 23 22 22 23 23 24 24 24 25 25 25 26 27 27
16 18 20 21 22 24 25 24 26 28 27 28 29 31 35 34 34 38 39 37 35 34 35 36 37 38 40 42 43 40 36 34 34 32 31 30 30 29 28 27 27 26 26 26 25 25 25 25 25 26 26 27 28 29 28 28 27 26 25 25 24 24 24 24 24 25 25 26 26 27 27 28 28 29
16 18 20 21 21 22 24 25 28 28 26 27 29 31 35 36 37 40 39 36 35 34 34 35 35 37 40 40 40 38 35 34 34 32 31 31 30 30 28 28 28 28 27 27 26 26 27 26 26 26 27 28 29 30 29 29 28 27 27 27 27 26 25 25 26 26 27 27 28 28 29 29 30 30
16 16 18 20 22 23 24 24 25 27 30 32 31 30 36 39 40 39 37 35 35 35 36 36 34 35 39 39 39 38 34 32 32 31 30 30 29 28 29 29 30 29 28 28 28 28 28 28 28 27 28 29 30 30 30 30 29 29 29 30 29 28 27 27 27 27 28 29 29 29 30 30 30 31
17 17 17 18 19 21 22 21 20 22 28 32 30 29 32 37 39 38 34 34 35 35 35 35 35 36 39 40 40 37 34 34 33 31 31 31 29 29 31 32 30 29 29 29 28 29 29 29 29 29 29 30 30 31 31 31 30 31 31 31 31 30 29 29 28 28 29 29 30 30 30 30 31 31
17 17 18 18 16 16 17 18 17 18 21 26 28 27 27 28 31 33 33 32 34 34 33 33 35 38 38 37 37 36 35 35 35 34 34 33 32 32 33 33 31 30 30 30 30 30 30 30 29 30 30 31 31 31 32 31 31 32 32 32 32 31 30 30 29 29 29 30 30 30 30 30 31 31
18 18 19 19 17 15 15 17 18 18 19 22 26 29 29 27 26 29 31 30 31 32 32 34 35 36 34 33 33 34 35 35 35 35 35 33 33 33 32 32 32 31 31 31 31 31 31 30 30 30 31 32 32 32 32 32 32 33 33 33 32 32 32 31 30 29 29 29 29 30 31 31 32 33
19 19 19 20 18 16 16 17 19 18 17 19 24 28 28 26 24 26 28 28 28 29 30 33 34 33 32 31 32 33 33 33 33 32 32 32 32 33 33 33 33 32 31 32 33 33 32 31 31 32 32 33 33 33 33 33 34 34 33 33 33 32 32 31 30 30 29 29 30 31 32 33 34 34
20 19 19 19 19 18 16 16 17 19 18 17 18 19 18 17 17 19 22 25 28 28 28 30 32 32 31 30 31 32 33 32 32 33 34 34 34 35 35 34 32 32 32 33 34 34 33 33 33 33 33 34 34 34 34 34 34 34 34 34 33 32 32 32 31 30 30 31 32 33 33 34 34 35
20 20 20 18 18 17 17 17 17 18 18 18 17 14 12 13 14 16 20 24 27 28 28 29 30 31 31 31 30 32 33 32 33 35 35 34 34 35 35 33 31 31 32 33 34 35 35 35 34 35 35 35 35 35 35 35 35 35 34 33 33 32 32 32 31 31 31 31 32 33 34 34 35 36
20 21 21 21 19 17 16 18 18 17 17 18 19 18 16 16 16 18 20 23 25 27 29 30 31 31 32 32 32 33 33 33 34 34 32 32 34 34 33 32 31 31 32 34 35 36 37 37 36 36 36 37 37 37 36 36 36 35 34 33 33 32 31 31 31 31 31 32 33 34 35 36 36 37
22 21 21 22 22 20 18 18 19 19 18 18 19 20 20 19 20 21 22 24 26 26 26 28 30 31 32 32 32 34 34 34 35 33 31 32 34 33 32 32 32 33 34 36 38 38 39 38 38 37 38 38 38 37 37 36 36 35 34 34 33 32 32 32 32 32 33 34 34 35 36 36 37 37
22 22 22 22 23 23 21 21 21 21 21 20 19 19 19 19 20 21 22 24 26 27 26 26 28 29 30 30 31 32 33 33 34 32 30 32 33 32 33 35 35 36 37 38 40 40 39 39 38 38 38 38 37 37 36 36 35 35 34 34 34 34 35 35 35 34 34 34 34 35 36 37 37 38
22 23 23 23 23 24 24 24 23 23 24 23 22 20 18 18 19 20 23 26 27 28 27 27 27 28 28 29 30 31 31 32 32 30 30 32 34 35 36 38 37 38 39 40 40 41 40 40 39 38 38 37 37 36 36 36 36 35 34 34 36 37 38 37 36 35 34 35 36 36 37 38 39 40
23 23 24 24 24 25 25 26 26 26 26 25 25 24 22 20 19 20 23 26 28 30 30 29 30 29 29 28 28 30 30 29 30 31 31 35 37 37 38 39 39 40 41 42 42 42 42 41 40 39 38 37 37 37 36 36 36 36 35 36 38 39 39 38 38 38 38 38 38 38 39 40 42 44
24 25 25 25 26 26 26 26 27 27 26 25 25 26 26 26 25 24 24 25 26 29 30 31 31 31 31 30 30 31 30 29 32 34 34 37 40 39 38 40 40 40 41 42 42 42 41 40 40 39 38 37 36 35 36 37 38 39 39 40 39 40 40 40 40 40 41 41 41 41 42 44 46 47
25 25 26 26 27 28 28 27 26 26 25 24 24 25 27 29 30 30 29 28 28 29 30 32 33 32 32 32 31 31 31 31 34 35 35 38 41 41 40 40 39 39 39 40 40 40 40 39 39 38 38 37 36 35 36 38 41 42 42 41 41 42 42 42 42 43 43 43 44 43 43 44 46 47
26 27 27 28 28 29 29 29 28 27 26 25 26 27 28 29 30 30 30 30 30 31 31 33 34 33 33 33 33 32 32 33 33 33 35 38 40 40 39 39 37 37 38 39 40 40 40 39 38 38 38 37 37 38 40 41 43 43 42 42 43 43 44 44 45 45 44 43 43 43 43 43 45 46
29 29 30 30 30 30 31 31 31 30 29 29 29 29 29 29 30 31 31 31 32 32 32 32 33 34 34 35 36 35 34 34 34 33 35 37 36 35 35 34 33 35 37 38 39 39 39 39 38 38 38 39 40 41 41 42 42 42 42 43 44 45 46 45 44 43 42 41 42 43 44 45 47 49
30 32 33 33 33 33 33 33 33 33 32 32 32 32 30 30 30 30 31 32 34 34 34 32 31 31 31 33 36 37 37 37 37 37 37 35 33 32 32 32 33 35 36 36 37 37 37 38 38 38 39 40 41 41 42 43 43 44 45 46 46 46 45 44 42 42 43 43 44 46 47 49 52 54
32 32 34 35 36 36 37 37 37 36 35 34 34 34 34 33 32 32 32 33 36 37 36 34 31 30 31 31 32 35 37 37 38 40 40 37 35 36 36 35 37 38 36 35 36 37 37 38 39 41 41 42 43 43 43 44 44 45 45 45 44 44 43 44 45 46 46 47 48 50 52 53 55 56
33 33 34 35 37 38 38 39 40 40 39 39 37 37 37 37 37 36 35 35 36 38 38 36 33 32 33 33 31 32 35 36 37 39 40 38 37 38 39 39 40 41 40 39 38 38 39 41 42 43 43 43 43 43 42 42 42 42 42 43 43 44 45 45 45 46 47 48 50 52 53 55 57 58
34 35 35 36 37 38 39 40 41 42 42 42 42 41 41 40 40 40 39 39 38 39 39 38 36 35 35 35 33 32 34 36 37 39 40 40 39 39 41 42 43 43 41 40 40 39 41 42 43 43 42 42 42 42 41 41 41 42 43 43 44 45 45 45 46 47 49 51 52 52 52 53 55 57
34 35 36 37 38 40 41 41 42 43 44 44 44 44 44 43 43 42 43 42 42 41 41 40 39 38 38 38 37 36 36 37 38 38 40 41 41 41 42 44 44 43 43 44 44 44 44 42 40 39 39 39 40 41 42 42 44 45 45 45 45 46 46 48 49 51 52 53 53 54 54 54 56 58
32 33 36 38 39 41 42 43 44 44 45 45 46 46 46 46 45 45 45 45 45 44 43 42 41 41 42 42 41 40 40 40 40 40 39 40 41 43 45 46 47 49 50 50 48 46 44 42 40 39 39 40 41 43 46 48 49 49 50 50 50 51 52 54 55 56 56 56 57 57 57 57 58 59
27 28 30 32 34 37 40 43 45 46 47 47 48 48 48 48 48 47 47 47 47 47 47 46 45 45 46 47 45 43 43 44 44 44 43 43 43 43 46 49 50 50 50 48 46 43 42 42 42 42 42 43 44 46 48 50 51 51 52 53 55 57 58 59 59 60 60 59 57 57 57 56 57 57
25 26 27 27 29 30 32 35 38 42 45 47 49 50 51 51 51 51 50 50 49 49 50 50 49 48 49 50 51 51 49 48 48 48 48 47 47 46 45 47 49 49 47 46 44 43 43 44 45 45 45 46 47 48 50 51 54 55 56 56 56 56 56 56 56 56 56 56 56 56 57 57 58 60
26 26 27 27 28 28 29 30 31 33 36 40 43 47 50 52 53 54 54 53 53 52 52 52 52 52 52 52 53 55 55 53 51 50 50 50 50 49 47 47 48 49 48 47 46 46 47 48 49 50 50 50 50 50 51 53 55 56 56 55 55 54 54 54 55 56 56 57 59 61 62 62 62 63
26 26 27 27 28 28 29 29 30 30 31 33 36 39 42 46 50 53 55 56 56 56 55 55 54 55 55 55 55 55 56 56 55 53 52 52 51 50 49 49 49 50 49 49 49 49 49 50 50 51 51 51 51 50 50 52 53 54 54 55 56 56 57 58 59 61 62 62 63 64 64 64 64 64
26 27 27 27 28 29 30 31 31 31 31 32 32 34 36 38 42 46 50 53 56 57 58 57 57 57 57 57 58 58 58 58 57 56 56 57 56 53 51 51 50 50 49 49 49 49 50 50 50 50 50 50 50 50 51 52 52 52 52 54 56 58 60 62 63 64 64 64 64 63 63 63 63 62
26 26 26 27 28 29 30 31 32 33 33 33 33 33 33 34 36 38 41 44 48 52 54 56 57 57 57 58 59 60 60 59 59 58 58 59 60 59 57 55 54 53 51 50 49 49 50 50 50 50 50 50 50 50 50 51 52 53 54 56 57 59 62 64 64 64 64 63 62 61 60 60 59 57
26 26 26 27 28 29 30 31 32 33 34 35 35 35 34 34 34 34 35 36 39 42 46 49 51 53 55 56 57 58 60 60 60 60 59 60 61 61 60 58 55 53 51 50 48 47 47 49 49 49 50 50 50 50 50 51 53 54 55 57 58 60 62 63 63 63 62 61 60 57 55 54 53 51
26 26 27 27 28 29 30 31 32 33 34 35 36 37 37 36 34 34 33 33 33 34 37 40 43 45 48 50 52 53 56 58 60 60 60 59 60 60 60 58 55 51 48 47 46 45 45 46 47 48 49 50 50 51 52 52 53 54 55 56 58 59 60 61 60 60 58 57 55 52 50 49 47 45
27 27 28 28 28 29 30 30 31 32 33 35 36 37 38 37 36 35 33 32 32 31 31 32 35 37 40 42 44 46 48 51 53 56 58 58 58 59 59 59 57 55 53 50 49 47 46 46 47 48 49 50 51 51 52 53 53 54 55 57 57 58 58 58 57 56 54 52 50 48 46 44 42 39
28 29 29 29 29 29 29 30 31 32 33 34 35 37 38 39 38 36 34 33 32 31 30 29 29 31 33 35 37 38 40 42 44 47 49 52 54 55 55 55 55 54 54 54 54 53 52 51 51 51 51 51 52 53 53 53 54 54 55 55 56 56 56 55 53 51 49 47 44 42 40 38 35 33
29 30 30 30 30 29 30 30 30 31 32 33 34 35 37 38 39 37 35 34 33 32 30 29 27 27 28 29 30 31 32 34 36 38 39 41 44 46 49 51 50 49 49 49 50 51 52 53 53 52 52 53 53 53 53 53 53 52 52 52 52 52 51 49 47 45 42 39 37 34 32 31 29 28
30 31 31 31 31 31 31 31 31 31 31 32 33 34 35 37 38 38 37 35 34 33 32 30 28 26 25 25 26 26 27 28 29 30 32 33 34 36 40 43 46 47 46 45 44 44 46 47 48 49 49 49 50 49 49 49 48 48 48 47 46 45 43 41 39 37 35 32 30 29 27 26 25 24
31 31 32 33 33 32 32 32 31 31 31 32 33 34 34 35 37 38 38 36 34 33 33 32 30 27 25 23 22 22 23 24 24 24 25 26 28 29 31 34 37 40 41 42 41 41 41 41 41 42 42 43 43 43 43 43 43 42 41 40 39 38 36 35 33 31 30 28 26 25 23 22 22 22
31 32 32 33 33 33 33 32 32 32 32 32 33 33 34 35 36 37 38 38 36 34 34 33 31 29 26 23 21 20 20 20 21 21 21 21 22 24 25 27 29 31 33 35 37 37 37 36 36 37 38 38 38 37 37 37 37 36 35 34 33 32 31 30 29 27 25 23 21 21 20 20 21 22
31 32 33 33 34 34 33 33 32 32 32 32 33 33 34 35 36 37 38 38 37 36 34 33 32 30 27 24 22 20 19 18 18 18 19 19 19 20 21 23 25 27 29 30 31 32 32 33 33 34 34 34 34 34 34 33 32 32 31 29 28 26 25 24 23 22 20 19 19 19 19 20 21 22
31 32 33 33 34 34 33 33 32 32 32 32 32 33 33 34 35 36 37 38 38 37 36 34 32 30 28 25 23 21 19 18 18 17 18 18 18 18 18 20 22 23 25 26 27 28 28 29 29 30 30 30 30 29 29 28 27 26 25 24 22 21 19 19 18 18 17 17 18 18 19 20 21 22
31 32 33 33 34 33 33 33 32 32 31 32 32 32 33 33 34 34 35 36 37 38 37 35 33 31 29 26 24 22 20 19 18 17 17 18 17 17 17 17 18 19 20 22 23 24 25 26 26 26 26 25 24 24 23 22 21 20 19 18 18 17 16 16 16 17 17 17 18 18 19 20 21 22
Wind_Direction
255 256 256 253 252 252 254 256 257 255 254 251 251 250 244 237 235 234 233 238 243 238 234 236 237 237 240 242 238 233 233 233 231 230 231 233 236 238 239 240 239 239 238 240 242 244 246 249 253 256 259 261 263 262 261 260 258 258 258 259 260 262 264 264 265 265 265 266 267 268 270 271 272 273
259 259 257 254 253 254 256 260 259 256 252 250 251 251 245 236 233 235 236 238 244 245 240 238 238 239 242 242 238 232 231 232 229 228 229 232 236 237 239 239 239 238 238 239 241 242 244 248 251 255 259 261 262 263 264 262 259 259 259 259 260 261 262 263 264 264 265 266 268 268 270 271 272 273
265 262 257 256 257 257 260 265 265 260 253 253 256 251 241 234 232 237 240 240 244 247 245 242 243 243 243 243 239 232 231 232 229 228 230 232 236 238 239 240 239 239 239 239 240 242 243 246 249 253 256 259 261 263 265 264 261 261 261 260 260 260 261 262 262 264 265 265 266 267 268 269 271 271
273 268 263 263 263 261 262 264 266 267 265 266 265 247 233 230 232 236 241 244 247 248 245 245 248 249 246 242 237 231 230 232 231 230 231 233 236 237 238 240 240 239 240 239 240 242 244 246 249 252 255 257 260 262 264 265 263 263 263 262 261 261 261 261 262 263 263 264 264 265 266 266 268 269
278 276 272 270 269 266 267 266 266 268 270 277 270 242 226 227 231 236 242 245 247 246 245 246 249 251 247 240 233 227 225 229 230 229 230 234 235 235 237 240 240 239 240 240 241 242 244 246 248 251 254 257 260 261 262 264 264 263 262 262 262 261 261 260 261 261 262 262 263 263 265 265 267 268
279 277 274 273 272 270 273 276 274 268 264 272 268 240 225 227 230 235 239 244 249 249 246 247 248 247 242 235 231 228 224 226 228 228 230 233 235 237 238 238 238 239 240 241 242 243 245 247 249 252 255 257 259 261 261 262 263 262 262 262 262 261 260 259 260 261 262 263 264 265 266 267 268 269
284 279 275 274 273 274 279 283 280 268 260 264 262 241 230 231 232 232 231 237 248 251 249 248 244 239 233 229 230 229 225 227 230 231 235 235 236 242 245 241 237 238 242 244 245 245 246 248 251 253 255 257 258 260 260 261 261 262 263 263 262 261 259 258 259 260 262 263 265 265 266 267 269 269
287 283 282 281 277 277 281 281 276 266 258 258 259 251 242 239 236 231 226 228 236 240 241 239 234 230 229 229 230 226 220 223 228 230 235 236 234 237 241 241 239 241 245 247 247 248 248 250 253 255 256 257 258 259 260 260 261 262 262 262 261 260 259 259 259 261 263 264 265 267 268 269 270 270
292 285 286 291 291 287 285 281 276 269 260 259 260 257 254 252 244 233 226 225 226 228 231 230 227 228 227 228 230 227 220 223 226 225 228 232 231 232 235 239 243 247 251 251 251 250 250 251 255 257 257 258 258 259 260 260 261 261 261 261 261 260 260 261 261 262 263 265 267 268 269 270 270 270
302 294 290 293 295 293 290 285 281 274 263 258 256 254 256 261 256 243 236 232 227 226 226 224 225 227 225 223 227 229 227 228 228 227 229 233 233 234 236 238 243 248 251 252 251 250 249 253 256 257 258 258 258 258 259 260 260 260 260 261 261 261 262 263 263 264 265 267 268 269 269 269 269 269
306 302 297 293 292 292 292 288 285 282 273 262 259 261 264 266 260 251 245 239 229 223 221 220 221 223 222 220 223 227 229 229 229 229 233 237 238 239 239 239 243 247 248 248 250 250 251 254 256 257 257 257 257 258 258 259 259 259 260 261 262 263 264 265 266 266 267 268 268 269 269 270 270 272
307 303 300 295 292 290 290 287 282 281 278 270 266 269 272 268 255 244 239 233 225 221 221 222 222 223 223 224 225 227 229 230 231 230 231 234 237 239 241 243 246 248 248 249 250 251 253 255 256 257 256 256 256 256 256 257 257 258 260 262 264 265 266 267 268 267 268 268 268 269 270 271 272 273
311 304 299 295 291 285 282 281 279 277 272 265 262 264 264 259 249 237 230 226 224 224 227 228 228 226 226 227 228 230 232 233 233 232 233 235 237 239 244 248 251 251 251 251 251 252 253 254 255 255 254 254 254 255 255 256 257 260 262 264 265 266 267 267 268 268 269 269 270 271 272 272 273 273
317 310 303 297 291 284 276 276 278 280 276 265 260 262 263 259 250 241 234 229 228 231 233 234 235 234 231 231 232 234 237 237 237 236 236 238 241 245 248 250 251 252 253 252 251 251 251 252 253 253 253 253 254 255 256 257 260 262 264 264 264 264 265 267 269 271 272 272 273 273 273 272 272 272
317 314 308 301 294 285 276 271 272 277 281 278 272 268 267 264 256 249 244 238 234 236 237 238 239 238 237 237 236 237 238 239 240 239 239 242 245 248 249 249 250 252 254 253 251 250 250 250 252 252 253 254 255 256 257 260 262 264 264 263 262 263 266 269 271 273 273 274 273 273 273 272 272 273
315 313 309 304 298 290 281 272 267 268 274 278 278 274 270 267 260 254 250 246 242 241 242 241 240 238 238 239 239 239 239 241 243 244 244 247 248 248 249 251 253 255 255 253 251 250 249 250 252 253 253 254 254 256 258 261 263 263 262 261 262 265 268 270 272 273 273 274 274 273 273 273 274 276
310 309 307 303 299 294 288 281 274 270 271 272 273 272 269 266 261 256 253 250 247 245 244 243 241 238 237 240 242 242 243 244 246 246 246 247 248 249 253 255 257 257 255 253 251 250 249 251 252 252 252 253 254 256 259 260 262 261 261 263 266 269 270 270 271 273 273 274 275 275 275 276 277 278
305 304 303 301 298 294 290 286 281 277 274 271 270 269 266 261 260 260 257 253 251 248 245 244 244 242 239 240 241 242 243 245 246 246 245 246 248 251 254 257 257 256 255 253 250 249 249 251 252 252 253 253 255 257 259 260 260 259 261 266 270 270 270 271 272 273 275 277 277 277 278 279 278 278
301 300 298 297 296 294 291 288 285 281 278 275 272 271 267 260 257 260 260 258 255 252 247 244 244 243 241 240 239 239 241 242 243 244 244 245 249 253 256 257 256 255 255 253 251 250 251 251 251 252 252 253 255 259 261 261 260 259 262 267 269 269 270 271 272 274 277 278 278 278 279 278 277 276
295 294 293 292 291 291 290 289 288 285 282 276 272 270 268 264 261 261 260 258 256 254 252 249 246 243 240 239 238 238 239 240 242 245 245 247 250 253 255 255 253 253 253 252 251 251 252 252 252 252 252 253 257 261 263 264 263 262 264 266 267 268 269 269 271 275 277 277 277 277 276 275 275 277
290 288 286 286 286 286 287 287 286 285 283 278 271 267 266 265 264 262 260 259 257 255 253 252 251 248 243 240 240 240 242 243 245 247 250 252 251 250 252 254 252 251 251 251 251 251 250 250 249 250 252 255 260 264 266 267 266 264 264 265 266 267 267 269 274 278 278 278 277 276 276 276 277 277
285 283 281 280 280 280 281 281 281 281 280 278 276 272 269 267 266 264 262 261 260 258 256 255 253 252 249 245 243 242 242 242 242 243 248 252 250 246 247 250 250 249 250 250 249 249 248 248 248 250 254 258 261 263 262 261 260 260 262 264 266 268 270 274 277 278 276 275 273 272 273 273 272 272
282 280 279 278 277 276 276 276 276 275 275 274 274 274 272 270 268 267 265 262 259 256 255 254 253 252 252 248 244 242 241 239 238 238 241 247 248 245 244 244 243 243 246 247 247 246 246 247 248 251 253 254 254 255 255 256 257 260 262 265 267 269 272 273 273 272 271 270 268 267 268 270 271 273
283 280 278 277 276 276 275 274 274 273 271 270 269 269 269 269 267 266 264 263 260 255 252 251 251 251 251 248 244 242 240 239 239 240 241 245 247 248 248 245 242 242 244 245 244 244 244 246 248 250 252 253 254 256 258 260 262 264 267 269 270 270 270 270 270 271 271 271 272 273 275 276 277 277
283 280 278 276 275 275 274 274 274 273 271 270 268 266 265 265 265 264 263 261 261 259 255 251 250 250 249 247 245 245 244 243 242 241 242 243 246 249 251 251 248 245 244 242 242 245 249 251 253 254 256 258 260 261 263 264 266 268 268 269 269 269 269 270 271 271 271 274 276 278 280 279 277 274
283 280 278 275 274 273 273 272 272 272 271 270 269 267 265 264 263 263 262 261 260 259 258 255 253 252 248 243 242 244 247 248 249 248 248 248 249 250 251 250 246 242 241 243 247 253 257 257 258 260 262 263 264 264 265 265 265 265 264 263 264 265 267 268 268 269 271 273 275 276 276 276 274 273
282 280 278 276 274 273 273 272 271 271 270 269 268 267 266 265 263 262 262 262 261 260 259 257 256 255 250 244 242 242 244 246 248 251 253 253 252 250 248 246 245 245 250 256 259 260 260 258 258 259 260 260 259 260 260 260 259 258 258 260 261 262 264 265 266 268 270 271 272 272 274 274 274 274
289 285 282 280 277 276 274 274 273 273 272 271 270 268 267 265 263 262 261 261 262 262 260 258 255 253 249 245 242 241 241 241 242 243 245 247 250 251 252 252 254 256 259 261 260 258 256 253 252 253 252 252 253 255 257 258 258 259 261 263 264 264 264 265 265 266 267 267 269 272 274 274 274 274
307 302 298 293 289 285 282 279 277 276 275 274 273 272 271 268 266 264 261 260 259 260 260 259 256 252 249 247 245 243 242 242 242 243 242 242 244 248 252 254 254 253 253 253 252 252 250 247 249 253 255 255 256 257 259 261 263 265 267 267 266 266 265 266 266 266 266 267 270 272 273 272 273 274
322 320 318 315 311 307 301 295 289 284 280 278 275 274 273 272 270 268 266 263 260 259 258 258 258 256 253 251 251 251 251 250 249 250 250 249 248 247 249 251 249 245 244 245 246 246 245 244 247 251 254 257 260 261 263 266 268 270 271 269 268 267 267 267 268 268 268 270 271 272 272 272 273 274
323 323 322 322 321 320 317 314 308 301 294 288 283 278 275 273 272 271 269 268 265 263 260 258 257 256 255 254 253 254 256 256 254 254 254 254 253 250 248 247 246 244 244 246 247 249 250 251 252 254 257 260 264 266 267 267 267 267 268 269 269 269 269 269 269 270 270 270 270 270 271 271 272 273
320 320 320 321 322 323 325 325 323 319 313 305 297 290 283 277 273 271 270 269 268 267 265 262 259 257 256 255 254 253 254 255 255 253 252 253 253 252 249 247 247 249 251 253 254 255 256 257 258 259 260 262 264 265 265 264 262 262 263 265 265 265 265 266 267 267 268 269 270 271 272 272 273 272
322 322 322 323 325 327 329 330 331 331 329 323 316 307 299 290 283 277 272 270 269 268 267 266 264 261 259 257 256 255 253 253 253 253 252 252 252 252 251 250 251 254 256 258 258 258 259 259 259 259 259 259 259 259 259 259 259 260 261 261 262 263 264 265 266 267 269 271 272 274 274 274 274 273
324 324 326 327 328 329 331 332 334 336 337 336 333 326 318 308 299 291 283 277 273 270 269 268 266 265 263 261 259 258 257 255 254 253 253 253 253 253 254 254 255 257 258 259 260 259 258 258 257 256 256 256 256 256 256 258 259 260 261 262 263 264 265 267 268 269 271 272 273 274 274 274 274 273
328 329 330 330 330 331 332 334 336 338 340 342 342 340 334 326 316 308 300 293 285 279 275 272 269 267 266 264 262 261 260 259 258 256 255 255 255 255 256 257 258 258 258 258 258 257 256 255 254 253 253 253 254 254 255 256 258 259 260 262 263 264 266 268 269 270 271 272 272 272 273 273 273 274
335 334 333 333 332 333 334 335 337 339 342 344 346 346 344 339 331 322 315 309 302 293 286 280 276 272 270 267 265 263 262 261 260 260 259 259 259 258 258 258 258 258 256 255 255 254 254 254 253 252 252 253 254 254 255 256 258 259 261 262 263 265 266 268 269 270 271 271 271 272 273 274 276 277
340 338 337 336 335 335 335 336 338 340 343 345 348 350 350 347 341 334 327 321 315 308 300 291 285 280 276 272 269 267 265 263 262 262 261 262 262 262 261 261 261 260 258 257 256 255 254 255 255 255 255 256 256 256 257 258 258 260 261 262 263 264 265 266 267 268 268 269 270 272 274 275 277 279
343 342 340 338 337 337 337 338 339 342 344 346 348 351 353 353 350 344 337 331 327 321 314 306 297 289 284 280 276 273 270 267 264 263 263 263 263 264 263 263 264 264 263 262 261 260 259 258 257 258 258 258 258 259 259 259 260 260 261 262 263 264 264 265 266 266 268 269 271 273 274 276 278 281
345 344 342 341 340 339 339 339 341 343 345 347 348 351 354 356 355 352 346 341 337 334 329 321 313 304 295 289 284 280 276 272 268 265 264 263 263 263 263 263 263 264 265 265 265 264 263 261 260 260 260 261 261 262 262 262 262 262 262 263 264 264 265 265 266 267 268 269 271 273 275 277 280 284
346 345 344 344 343 341 341 340 341 343 345 347 348 350 353 356 358 357 353 349 346 344 341 336 329 321 312 303 295 289 284 280 275 270 267 264 263 262 262 261 261 261 263 265 266 266 265 264 263 263 263 263 264 264 265 265 264 264 264 264 265 265 265 265 266 267 268 269 271 274 277 281 285 288
346 345 345 345 344 343 342 341 341 343 344 347 349 350 352 354 357 359 358 355 352 350 349 346 342 336 328 319 310 302 295 290 285 280 274 268 265 263 263 262 262 261 261 261 263 265 266 267 266 266 266 266 267 267 268 268 267 266 266 266 265 265 265 265 266 267 269 271 274 278 281 285 287 289
344 344 344 344 344 343 342 342 341 342 343 346 348 350 351 352 355 358 360 359 357 355 354 352 349 345 340 333 326 317 309 303 298 293 287 278 270 265 263 262 261 260 258 257 258 260 262 264 265 265 265 266 267 267 267 266 265 265 265 264 264 264 264 265 266 268 271 273 276 279 281 283 285 287
341 341 342 342 342 342 341 341 341 341 343 345 347 349 350 351 353 355 359 0 360 358 357 356 354 350 346 342 336 330 324 317 311 305 299 292 283 272 265 261 260 259 257 257 256 256 256 257 258 259 259 261 261 261 261 260 260 260 260 259 259 260 261 263 265 267 269 271 274 276 278 281 284 287
338 339 340 340 340 340 340 339 340 341 342 343 345 347 349 350 352 353 356 359 0 360 359 357 356 354 350 346 341 337 332 327 320 313 306 301 295 287 277 269 264 262 261 259 257 256 254 253 252 251 252 253 253 253 252 253 254 254 254 254 254 256 257 258 260 262 265 268 271 274 277 280 283 284
336 337 338 338 338 338 337 337 339 340 341 342 343 345 347 349 350 351 353 356 359 360 359 358 357 356 353 349 344 340 336 332 327 320 313 306 301 296 290 282 273 267 264 262 260 258 256 253 251 249 249 247 245 244 244 245 246 247 248 248 249 251 253 256 259 261 264 267 270 274 277 279 281 283